Location: Brompton
(51.4000°N, 0.5333°E)
Time: 18:47:25
(UTC+00:00)

Spot 2 Rocket - Pass Details

Date: 11 May 2021
Orbit: 758 x 771 km, 98.5° (Epoch: 21 June)

Event Time Altitude Azimuth Distance (km) Brightness Sun altitude
Exits shadow 20:22:05 - 138° (SE) 2,486 5.5 -6.5°
Reaches altitude 10° 20:22:36 10° 136° (SE) 2,291 5.3 -6.6°
Maximum altitude 20:27:21 43° 66° (ENE) 1,058 4.1 -7.1°
Drops below altitude 10° 20:32:07 10° 356° (N) 2,301 6.7 -7.7°
Sets 20:34:31 0° 350° (N) 3,231 7.7 -8.0°
